Wind_Speed
1 2 6 9 7 4 1 2 4 1 2 5 2 7 12 23 22 22 27 30 33 38 39 38 35 32 32 32 30 27 25 24 25 24 23 21 21 22 22 21 20 18 16 17
5 4 7 4 4 3 6 4 2 3 3 4 1 6 4 6 21 32 32 31 33 31 33 38 39 38 35 32 28 29 27 24 24 25 24 23 19 17 19 22 24 23 22 21
5 7 2 4 3 6 1 6 2 0 3 6 6 5 3 3 5 22 29 40 37 39 37 37 40 37 38 36 32 31 30 26 23 26 26 25 24 23 24 27 30 30 30 27
5 7 4 2 2 4 1 4 4 3 4 4 3 4 4 5 2 3 21 29 32 33 34 32 36 35 31 30 29 30 30 23 20 24 27 26 26 26 25 25 25 29 31 33
6 4 2 3 3 5 5 1 3 3 4 2 1 5 5 4 4 5 9 22 29 33 33 30 29 27 25 22 23 26 27 22 19 20 24 28 29 29 27 24 25 25 25 28
7 5 4 7 3 2 3 3 7 5 3 3 4 4 4 7 11 4 6 22 28 28 27 23 21 20 20 22 21 17 16 16 16 15 15 20 22 21 22 21 22 22 23 26
4 3 3 4 2 4 7 7 4 5 5 5 2 2 7 15 6 10 15 24 28 28 26 24 22 21 21 21 21 21 21 18 14 12 10 11 17 21 24 26 27 27 27 28
3 6 1 2 6 6 3 6 5 3 2 5 5 3 5 3 17 17 28 30 28 28 25 21 20 19 19 20 20 20 19 12 10 7 8 10 12 16 18 21 25 27 28 31
5 4 2 1 4 6 3 2 3 7 3 2 4 5 4 6 10 19 20 26 29 27 22 18 17 18 17 17 16 15 11 7 7 8 10 12 15 17 19 20 21 24 27 28
7 2 2 1 6 6 5 6 3 4 2 3 4 3 4 2 3 5 10 24 29 27 23 22 21 19 17 15 14 13 11 13 13 14 16 17 20 21 22 22 27 25 27 30
5 4 5 2 2 5 2 2 6 6 4 5 1 5 5 9 9 14 15 27 29 25 23 23 22 19 18 17 14 14 12 9 8 10 15 17 18 20 26 29 28 29 29 33
6 6 4 3 4 2 4 2 4 5 4 1 3 5 2 6 9 13 19 27 26 25 24 21 18 19 18 14 10 8 7 8 12 18 23 25 24 25 26 28 31 36 38 37
8 1 4 5 6 5 8 3 5 5 3 5 6 6 4 3 12 17 25 25 26 25 24 23 21 19 16 12 7 7 12 17 19 22 27 28 30 28 29 29 32 36 38 36
9 4 6 7 6 4 5 3 5 5 3 2 5 2 3 3 6 12 22 27 25 24 23 20 18 14 9 7 11 14 15 16 21 25 28 27 28 30 32 32 33 33 29 30
5 5 3 3 4 3 3 3 3 4 4 4 3 6 5 9 10 20 25 21 21 22 20 17 13 11 11 10 11 13 16 20 23 27 28 33 32 29 31 35 37 34 29 28
4 1 2 3 4 6 4 3 4 1 3 4 4 6 6 9 18 13 20 23 22 20 16 15 14 10 8 10 14 19 19 21 26 29 34 37 31 29 34 33 32 30 29 29
4 5 3 4 2 5 3 5 4 1 1 4 5 8 4 4 14 24 23 19 17 17 16 12 8 7 8 14 19 21 21 25 29 34 39 37 32 33 32 29 27 28 31 31
6 5 3 4 1 2 6 2 5 8 2 3 4 3 6 7 6 7 8 10 8 7 7 9 10 12 15 19 21 23 23 27 32 37 36 34 30 27 27 27 28 28 27 29
5 5 3 4 4 3 3 5 6 5 1 2 6 6 15 17 17 10 8 3 5 9 11 11 14 18 20 23 23 24 25 28 34 34 35 30 24 22 22 25 24 24 25 27
7 7 5 3 4 7 8 5 8 7 1 6 10 9 12 7 3 4 5 6 7 9 13 16 18 20 23 24 26 26 26 31 36 36 33 26 20 19 22 21 21 22 25 26
3 3 5 3 3 6 7 8 10 6 7 16 14 14 15 5 6 4 5 7 11 13 14 15 17 23 26 25 24 25 29 32 35 34 26 21 17 19 19 21 21 22 24 24
5 5 3 3 3 6 2 2 6 4 17 20 13 11 8 7 5 5 7 9 11 14 16 17 23 25 28 24 24 28 31 32 31 26 21 18 17 18 18 20 21 22 24 22
1 4 3 5 4 4 6 9 11 11 17 13 12 8 4 3 6 8 10 14 16 17 23 28 32 31 29 24 26 28 29 29 24 18 19 18 20 19 18 20 20 21 20 17
5 2 4 3 5 3 9 12 14 13 14 11 6 3 4 6 6 9 9 11 15 19 24 28 33 35 30 21 20 24 27 24 22 20 22 23 23 21 20 20 17 21 18 17
2 4 2 3 2 4 11 9 9 10 7 4 2 2 5 6 5 6 11 16 21 25 26 25 26 24 20 19 19 25 24 21 21 21 20 21 20 21 21 19 18 19 12 20
2 3 3 4 3 5 3 7 6 6 2 2 4 4 4 5 7 12 13 13 16 19 19 21 20 20 18 20 22 24 23 21 20 19 16 18 18 17 15 17 16 13 15 17
Wind_Direction
299 81 228 215 209 214 3 268 298 162 84 82 225 114 157 185 184 182 182 187 195 207 209 210 215 221 218 218 218 220 224 226 222 225 225 228 240 245 245 247 252 251 254 250
20 248 247 253 202 178 225 216 293 280 77 100 90 68 59 150 197 192 186 190 199 202 209 214 215 219 225 226 229 230 231 236 236 234 238 245 259 269 268 262 262 266 262 260
171 243 330 155 259 157 341 96 27 114 39 28 91 8 343 356 137 193 193 193 197 202 205 212 216 218 222 225 230 235 237 243 244 241 243 247 256 256 257 261 262 264 265 268
228 272 266 181 120 109 118 197 171 119 63 181 90 213 272 316 313 95 169 184 193 200 207 208 213 215 219 224 230 237 240 247 254 258 255 253 258 262 273 278 273 265 266 266
258 294 181 163 194 153 208 77 35 99 124 112 334 91 262 89 248 199 142 154 180 195 204 208 209 212 218 219 218 232 237 246 258 268 274 262 259 270 277 279 277 273 271 267
237 282 181 196 161 80 91 48 44 52 70 37 272 128 255 193 192 166 154 147 163 174 185 193 196 200 206 207 211 213 220 228 241 260 266 261 270 279 286 292 293 284 278 275
330 239 283 156 110 22 71 50 3 12 9 222 350 96 226 217 185 176 156 157 159 165 168 174 181 188 198 204 208 217 218 232 244 253 268 289 283 278 276 282 286 287 284 278
139 329 331 193 156 171 59 134 144 190 227 276 342 318 270 230 149 163 164 167 167 161 165 170 176 183 190 200 205 212 216 216 221 244 291 303 301 305 303 301 300 293 290 289
149 272 315 124 122 114 181 69 159 103 19 43 290 311 356 44 130 159 170 172 173 170 174 183 181 180 186 193 200 208 215 228 232 273 282 281 294 297 297 296 294 295 300 299
201 86 343 154 94 45 110 150 51 15 158 261 311 277 235 264 161 140 156 173 176 177 180 180 184 188 194 200 206 219 233 245 255 262 268 272 281 281 283 281 286 292 292 293
125 109 276 39 79 171 41 75 55 112 123 158 213 274 224 189 190 187 186 187 185 183 187 191 196 200 203 208 212 222 224 234 261 282 293 297 287 281 290 286 283 288 284 283
192 131 145 199 328 304 87 104 122 124 219 127 149 270 355 223 209 176 176 187 187 195 200 201 203 194 180 184 190 211 242 281 311 311 306 300 293 288 286 283 286 289 291 288
183 18 86 8 349 358 81 32 113 119 83 189 140 260 349 44 149 172 157 165 169 163 164 169 173 175 183 196 223 276 292 295 295 295 298 298 296 292 291 290 287 289 286 285
105 96 150 177 189 146 101 64 73 89 95 180 224 272 319 334 162 176 177 170 167 169 169 167 170 175 188 231 258 272 284 305 317 314 304 297 295 291 291 292 294 300 290 286
92 113 101 103 111 94 95 111 138 143 178 153 250 207 229 214 198 181 170 167 167 167 170 177 183 200 221 242 268 298 313 315 317 313 302 299 299 289 286 290 293 293 289 289
15 114 97 52 47 105 117 136 122 75 158 257 261 270 224 258 189 161 163 160 165 174 182 189 196 211 240 277 301 306 305 311 313 310 310 310 302 286 289 290 293 290 289 288
79 120 87 190 319 114 2 169 130 155 326 233 207 240 158 120 148 165 169 176 183 186 182 193 220 252 288 301 293 293 306 311 310 312 313 309 295 289 291 293 292 293 294 293
121 98 97 159 97 150 237 254 148 121 53 125 73 45 56 93 109 153 148 145 157 187 229 257 271 277 279 282 287 292 298 306 313 315 313 308 296 287 290 290 295 296 298 297
83 113 89 138 165 275 324 193 160 169 226 295 113 99 114 114 112 119 137 181 241 252 258 258 267 268 264 273 287 286 291 311 315 317 316 308 296 289 289 293 297 299 299 299
64 70 113 136 153 207 226 224 170 113 259 206 144 143 146 114 105 250 223 224 235 241 246 267 277 260 267 285 290 283 295 308 312 313 312 302 290 288 295 296 297 298 297 302
48 30 151 150 202 284 248 223 155 128 234 175 168 160 156 155 177 168 201 241 268 276 278 275 274 283 291 288 277 283 300 307 309 311 305 300 293 293 295 298 293 294 297 299
160 146 200 95 144 264 3 105 171 190 137 150 138 134 134 142 165 198 233 262 276 283 288 292 299 300 306 293 282 294 301 309 310 309 302 296 295 293 296 294 296 290 299 298
41 178 186 159 212 287 53 105 113 137 132 134 131 135 155 213 270 283 286 292 298 309 310 309 306 299 295 297 289 295 308 311 310 305 298 297 298 296 296 295 298 290 299 296
333 104 93 97 340 26 85 99 112 122 126 131 150 197 244 268 272 270 283 313 316 315 316 314 312 296 294 297 300 307 312 308 305 299 296 298 297 292 286 291 291 285 295 303
260 21 62 43 243 110 78 97 121 131 135 161 189 279 298 284 275 315 331 325 322 322 316 320 320 315 317 310 307 312 312 307 308 299 303 307 299 296 292 293 286 288 271 307
352 180 128 206 216 126 108 94 114 150 136 253 277 297 299 311 312 314 320 331 333 334 335 330 326 321 319 311 309 312 307 298 303 303 313 324 311 307 309 301 281 264 272 305
Height
1499 1506 1512 1503 1500 1499 1503 1504 1498 1489 1484 1491 1495 1499 1499 1501 1508 1511 1513 1516 1518 1520 1523 1530 1533 1535 1539 1543 1545 1547 1549 1551 1554 1556 1557 1559 1559 1561 1562 1564 1566 1567 1568 1569
1503 1509 1490 1490 1494 1499 1503 1502 1501 1492 1486 1493 1500 1505 1502 1503 1503 1503 1506 1512 1514 1520 1523 1526 1531 1535 1537 1541 1543 1544 1547 1550 1553 1554 1555 1557 1558 1559 1560 1562 1563 1564 1565 1566
1506 1492 1486 1490 1490 1497 1498 1501 1499 1499 1494 1495 1502 1515 1509 1505 1505 1504 1506 1504 1510 1513 1518 1524 1529 1533 1536 1539 1542 1544 1547 1550 1552 1553 1555 1556 1557 1557 1558 1559 1559 1560 1561 1562
1498 1486 1486 1488 1490 1493 1504 1490 1494 1497 1507 1524 1504 1547 1515 1511 1507 1505 1504 1507 1509 1514 1518 1523 1527 1532 1535 1537 1542 1545 1548 1550 1552 1553 1553 1554 1555 1555 1557 1557 1557 1557 1557 1557
1497 1488 1487 1491 1488 1487 1495 1487 1492 1495 1510 1512 1512 1534 1524 1513 1513 1507 1505 1506 1509 1513 1518 1522 1526 1531 1534 1538 1541 1543 1547 1551 1552 1552 1553 1552 1552 1553 1552 1554 1552 1553 1553 1553
1490 1482 1482 1483 1482 1482 1485 1490 1502 1510 1519 1538 1518 1524 1529 1517 1503 1507 1506 1508 1510 1515 1519 1523 1527 1531 1535 1538 1541 1543 1546 1547 1548 1550 1549 1549 1548 1548 1548 1549 1548 1547 1548 1548
1491 1485 1479 1478 1485 1485 1491 1513 1544 1541 1550 1544 1521 1521 1517 1498 1498 1498 1502 1508 1512 1515 1518 1522 1525 1529 1532 1535 1537 1539 1542 1543 1544 1545 1545 1544 1544 1544 1544 1543 1542 1541 1541 1541
1510 1512 1482 1477 1482 1493 1498 1509 1543 1548 1557 1543 1518 1527 1511 1495 1497 1503 1506 1508 1513 1516 1518 1521 1524 1528 1530 1532 1534 1537 1539 1540 1541 1542 1542 1542 1541 1540 1539 1538 1537 1535 1535 1534
1510 1502 1478 1476 1476 1483 1499 1514 1509 1538 1545 1548 1537 1513 1499 1497 1498 1503 1506 1509 1512 1515 1517 1521 1524 1527 1530 1532 1534 1537 1539 1541 1541 1541 1541 1540 1539 1538 1536 1535 1533 1531 1529 1528
1488 1506 1484 1478 1478 1485 1489 1498 1522 1536 1545 1545 1541 1527 1526 1506 1505 1504 1506 1507 1510 1513 1517 1521 1524 1526 1529 1532 1535 1537 1538 1539 1539 1539 1538 1537 1535 1533 1531 1529 1528 1526 1525 1522
1483 1496 1498 1486 1493 1499 1500 1508 1521 1529 1542 1555 1559 1538 1505 1502 1501 1501 1501 1505 1508 1513 1518 1521 1524 1527 1529 1532 1534 1536 1537 1537 1536 1535 1534 1533 1531 1529 1526 1523 1521 1519 1517 1516
1477 1496 1513 1499 1490 1489 1493 1503 1512 1533 1535 1545 1545 1534 1498 1496 1497 1499 1500 1504 1509 1514 1517 1521 1523 1525 1529 1531 1532 1533 1533 1533 1531 1530 1529 1526 1524 1522 1519 1517 1514 1511 1508 1506
1473 1500 1522 1514 1504 1493 1499 1500 1510 1519 1527 1541 1546 1535 1497 1496 1496 1500 1501 1506 1509 1513 1516 1519 1523 1525 1527 1529 1530 1529 1529 1528 1527 1525 1523 1519 1516 1514 1511 1508 1506 1503 1499 1496
1466 1497 1501 1519 1508 1501 1506 1501 1505 1515 1534 1535 1533 1514 1501 1501 1501 1502 1505 1508 1511 1514 1517 1520 1522 1524 1525 1525 1525 1524 1524 1524 1522 1519 1515 1511 1508 1505 1502 1499 1496 1493 1489 1486
1469 1495 1495 1498 1496 1495 1500 1504 1504 1507 1512 1522 1515 1515 1504 1500 1499 1499 1503 1508 1511 1513 1516 1518 1520 1522 1522 1522 1522 1522 1521 1519 1517 1513 1509 1505 1500 1496 1494 1490 1487 1484 1481 1478
1476 1500 1494 1506 1499 1497 1504 1502 1503 1505 1505 1507 1508 1509 1496 1495 1498 1503 1505 1507 1510 1513 1515 1518 1518 1519 1520 1521 1520 1518 1514 1512 1510 1506 1501 1496 1491 1488 1485 1481 1478 1475 1473 1470
1484 1497 1509 1517 1506 1503 1516 1504 1503 1504 1504 1505 1512 1501 1494 1497 1498 1502 1506 1509 1511 1513 1515 1517 1518 1518 1518 1516 1512 1509 1507 1504 1501 1497 1492 1486 1481 1479 1476 1473 1470 1468 1465 1462
1487 1499 1510 1521 1512 1528 1503 1495 1495 1502 1503 1502 1500 1498 1499 1501 1504 1507 1510 1512 1514 1516 1516 1516 1516 1515 1513 1510 1506 1503 1500 1497 1493 1488 1482 1477 1473 1469 1468 1466 1463 1460 1458 1455
1474 1493 1514 1521 1524 1513 1497 1493 1497 1499 1507 1501 1501 1500 1502 1504 1506 1510 1511 1513 1514 1514 1514 1513 1512 1510 1507 1503 1499 1496 1494 1490 1485 1480 1474 1468 1465 1463 1461 1459 1456 1454 1452 1448
1482 1486 1500 1519 1519 1525 1501 1486 1486 1491 1516 1500 1498 1500 1502 1504 1516 1511 1510 1511 1511 1510 1509 1508 1506 1503 1500 1497 1494 1490 1487 1483 1478 1473 1466 1462 1458 1457 1455 1453 1450 1448 1447 1442
1498 1501 1505 1516 1515 1508 1487 1482 1485 1508 1510 1494 1497 1499 1502 1505 1506 1508 1508 1508 1508 1507 1505 1503 1501 1497 1494 1490 1486 1482 1479 1474 1471 1464 1460 1456 1454 1451 1449 1447 1445 1444 1442 1437
1493 1504 1509 1515 1514 1512 1482 1483 1493 1489 1488 1493 1498 1501 1503 1504 1504 1505 1504 1504 1503 1501 1499 1498 1493 1489 1487 1483 1479 1476 1473 1468 1462 1457 1455 1453 1449 1447 1444 1442 1441 1439 1437 1432
1493 1491 1497 1499 1502 1490 1486 1485 1486 1488 1490 1496 1498 1500 1501 1502 1502 1502 1501 1499 1498 1496 1493 1490 1486 1481 1478 1475 1473 1469 1466 1462 1456 1453 1450 1448 1445 1442 1440 1438 1436 1433 1431 1428
1486 1484 1492 1493 1494 1491 1489 1490 1490 1492 1494 1497 1498 1498 1499 1499 1499 1499 1497 1497 1495 1492 1488 1483 1477 1472 1469 1468 1467 1464 1460 1456 1452 1449 1446 1443 1439 1436 1435 1434 1432 1428 1426 1423
1489 1485 1492 1496 1493 1492 1492 1491 1493 1493 1494 1496 1497 1498 1498 1497 1496 1496 1494 1492 1490 1486 1482 1478 1473 1469 1464 1464 1461 1459 1456 1452 1447 1444 1441 1437 1435 1432 1429 1427 1426 1423 1422 1422
1487 1489 1494 1497 1489 1491 1494 1493 1493 1494 1494 1495 1496 1497 1497 1496 1495 1494 1492 1489 1486 1483 1480 1475 1471 1466 1461 1459 1457 1454 1450 1446 1442 1440 1437 1434 1431 1428 1425 1422 1420 1420 1419 1417